User: anonymous   Login
Location: Newark
(53.3333°N, 83.7500°E)
Time: 16:48:16
(UTC+00:00)
Language:

Vanguard 2 - Orbit

View from above orbital plane
View from above orbital plane
View from above satellite
View from above satellite

Ground track
Ground track

The orbit data is extracted from the following two-line orbital elements,

1    11U 59001A   19316.51965810  .00000188  00000-0  10385-3 0  9999
2    11  32.8635 153.6131 1466766 101.2233 275.6248 11.85625741590850
Epoch (UTC): 12 November 2019 12:28:18
Eccentricity: 0.1466766
inclination: 32.8635°
perigee height: 554 km
apogee height: 2937 km
right ascension of ascending node: 153.6131°
argument of perigee: 101.2233°
revolutions per day: 11.85625741
mean anomaly at epoch: 275.6248°
orbit number at epoch: 59085

The dashed part of the orbit path shows where the satellite is in the earth's shadow,  

DLR